Trujillo Airport

Jump to: basic info | weather | runways | comments

Related pages: nearby airports | nearby navaids | notams | map

Basic information (top)

Codes: TJI MHTJ
Location: lon 15.926800, lat -85.938202, elev 3 ft / 1 m msl
Status: medium_airport

Weather (top)

Current conditions for Juan Manuel Galvez International Airport 41nm (76km) NW (rec'd 2014/07/22 21:00Z):

MHRO 222100Z 04005KT 9999 TS BKN022CB 28/24 Q1013 A2992 RERA BECMG 7000 -RA

Airport forecast for Tocoa Airport 16nm (30km) SSW (rec'd 2011/03/13 06:00Z):

TAF MHTO 130425Z 1306/1406 09012KT 9999 SCT018 SCT080 TX29/1319Z TN24/1312Z 
      BECMG 1313/1315 SCT020TCU

Runways (top)

06/24: 3,515 x 95 ft (1,071 x 29 m) — paved — not lighted

Latest comments (top)

No comments yet for Trujillo Airport

More... (top)

See also NOTAMs and nearby airports and navaids, or visit the Trujillo Airport page at the main OurAirports website..